Tracking 17631 objects as of 4-May-2016
HD Live streaming from Space Station
objects crossing your sky now

GLOBALSTAR M048

Track GLOBALSTAR M048 now!
10-day predictions
GLOBALSTAR M048 is classified as:


NORAD ID: 25872
Int'l Code: 1999-041A
Perigee: 1,987.4 km
Apogee: 2,010.0 km
Inclination: 51.9 °
Period: 127.0 minutes
Semi major axis: 8369 km
RCS: 2.5743 m2 (large)
Launch date: July 25, 1999
Source: Globalstar (GLOB)
Launch site: AIR FORCE EASTERN TEST RANGE (AFETR)
Your satellite tracking list
Your tracking list is empty





NASA's NSSDC Master Catalog

Two Line Element Set (TLE):
1 25872U 99041A   16124.83932862 -.00000047  00000-0  61385-3 0  9990
2 25872  51.9381 323.1535 0013532 172.6101 283.4403 11.33805779746989
Source of the keplerian elements: AFSPC

N2YO: 365